When you browse on this site, cookies collect data to enhance your experience and personalize the content and advertising you see.
Visit our Privacy Policy to learn more. By continuing to use the site, you agree to this use of cookies and data.
  • In Deutschland
  • Länderverzeichnis
  • Für 7 Tage
  • Wassertemperatur
  • Satellitenkarten
  • Wetterkarte
  • Widgets
  • user-avatar
    Anmelden

    Stündliche Wetter Andora

    Heute, 19 Juni, Mittwoch

    Zeit Temperatur Niederschläge Wind Luftdruck Luftfeuchtigkeit
    00:00 +11°C° 0 mm 1 m/S 622 mmHg 64%
    01:00 +11°C° 0 mm 1 m/S 622 mmHg 60%
    02:00 +11°C° 0 mm 1 m/S 622 mmHg 55%
    03:00 +11°C° 0 mm 1 m/S 622 mmHg 50%
    04:00 +12°C° 0 mm 1 m/S 623 mmHg 51%
    05:00 +13°C° 0 mm 1 m/S 623 mmHg 53%
    06:00 +14°C° 0 mm 1 m/S 624 mmHg 54%
    07:00 +16°C° 0 mm 1 m/S 625 mmHg 46%
    08:00 +18°C° 0 mm 2 m/S 626 mmHg 39%
    09:00 +20°C° 0 mm 2 m/S 627 mmHg 31%
    10:00 +20°C° 0 mm 2 m/S 627 mmHg 30%
    11:00 +21°C° 0 mm 3 m/S 627 mmHg 29%
    12:00 +22°C° 0 mm 3 m/S 627 mmHg 28%
    13:00 +22°C° 0 mm 3 m/S 626 mmHg 30%
    14:00 +21°C° 0 mm 3 m/S 626 mmHg 32%
    15:00 +21°C° 0 mm 3 m/S 626 mmHg 33%
    16:00 +20°C° 0 mm 3 m/S 625 mmHg 39%
    17:00 +19°C° 0 mm 2 m/S 625 mmHg 46%
    18:00 +18°C° 0 mm 2 m/S 625 mmHg 52%
    19:00 +16°C° 0 mm 1 m/S 624 mmHg 59%
    20:00 +14°C° 0 mm 1 m/S 623 mmHg 66%
    21:00 +12°C° 0 mm 1 m/S 623 mmHg 74%
    22:00 +12°C° 0 mm 1 m/S 623 mmHg 72%
    23:00 +12°C° 0 mm 1 m/S 623 mmHg 71%

    Morgen, 20 Juni, Donnerstag

    Zeit Temperatur Niederschläge Wind Luftdruck Luftfeuchtigkeit
    00:00 +11°C° 0 mm 1 m/S 623 mmHg 69%
    01:00 +11°C° 0 mm 1 m/S 623 mmHg 71%
    02:00 +11°C° 0 mm 1 m/S 623 mmHg 72%
    03:00 +11°C° 0 mm 1 m/S 623 mmHg 73%
    04:00 +11°C° 0 mm 0 m/S 624 mmHg 74%
    05:00 +12°C° 0 mm 0 m/S 624 mmHg 74%
    06:00 +13°C° 0 mm 0 m/S 625 mmHg 74%
    07:00 +15°C° 0.1 mm 1 m/S 625 mmHg 69%
    08:00 +16°C° 0.1 mm 2 m/S 626 mmHg 63%
    09:00 +18°C° 0.1 mm 2 m/S 626 mmHg 57%
    10:00 +18°C° 0.1 mm 3 m/S 627 mmHg 55%
    11:00 +19°C° 0.1 mm 3 m/S 627 mmHg 52%
    12:00 +20°C° 0.1 mm 4 m/S 627 mmHg 50%
    13:00 +19°C° 0.4 mm 4 m/S 627 mmHg 53%
    14:00 +19°C° 0.4 mm 4 m/S 626 mmHg 56%
    15:00 +18°C° 0.4 mm 4 m/S 626 mmHg 59%
    16:00 +17°C° 1.4 mm 3 m/S 625 mmHg 69%
    17:00 +16°C° 1.4 mm 2 m/S 625 mmHg 79%
    18:00 +14°C° 1.4 mm 1 m/S 624 mmHg 89%
    19:00 +13°C° 2.7 mm 1 m/S 624 mmHg 91%
    20:00 +12°C° 2.7 mm 1 m/S 624 mmHg 92%
    21:00 +11°C° 2.7 mm 1 m/S 624 mmHg 94%
    22:00 +11°C° 0 mm 1 m/S 624 mmHg 92%
    23:00 +11°C° 0 mm 1 m/S 624 mmHg 90%

    übermorgen, 21 Juni, Freitag

    Zeit Temperatur Niederschläge Wind Luftdruck Luftfeuchtigkeit
    00:00 +11°C° 0 mm 1 m/S 624 mmHg 89%
    01:00 +11°C° 0 mm 1 m/S 624 mmHg 88%
    02:00 +10°C° 0 mm 0 m/S 624 mmHg 87%
    03:00 +9°C° 0 mm 0 m/S 624 mmHg 87%
    04:00 +10°C° 0 mm 0 m/S 624 mmHg 87%
    05:00 +11°C° 0 mm 0 m/S 624 mmHg 87%
    06:00 +11°C° 0 mm 0 m/S 625 mmHg 87%
    07:00 +13°C° 0.5 mm 1 m/S 625 mmHg 83%
    08:00 +14°C° 0.5 mm 1 m/S 626 mmHg 80%
    09:00 +16°C° 0.5 mm 2 m/S 626 mmHg 77%
    10:00 +16°C° 1.1 mm 2 m/S 626 mmHg 78%
    11:00 +16°C° 1.1 mm 2 m/S 626 mmHg 79%
    12:00 +16°C° 1.1 mm 2 m/S 626 mmHg 80%
    13:00 +16°C° 1.9 mm 2 m/S 626 mmHg 81%
    14:00 +15°C° 1.9 mm 2 m/S 626 mmHg 83%
    15:00 +15°C° 1.9 mm 1 m/S 625 mmHg 85%
    16:00 +14°C° 1.2 mm 1 m/S 625 mmHg 86%
    17:00 +14°C° 1.2 mm 1 m/S 625 mmHg 87%
    18:00 +14°C° 1.2 mm 1 m/S 625 mmHg 88%
    19:00 +12°C° 0.7 mm 1 m/S 625 mmHg 90%
    20:00 +11°C° 0.7 mm 1 m/S 625 mmHg 92%
    21:00 +9°C° 0.7 mm 0 m/S 625 mmHg 95%
    22:00 +9°C° 0.1 mm 0 m/S 625 mmHg 95%
    23:00 +9°C° 0.1 mm 0 m/S 625 mmHg 95%

    22 Juni, Samstag

    Zeit Temperatur Niederschläge Wind Luftdruck Luftfeuchtigkeit
    00:00 +9°C° 0.1 mm 0 m/S 625 mmHg 95%
    01:00 +8°C° 0 mm 0 m/S 625 mmHg 95%
    02:00 +8°C° 0 mm 0 m/S 624 mmHg 95%
    03:00 +9°C° 0 mm 1 m/S 624 mmHg 96%
    04:00 +10°C° 0 mm 1 m/S 625 mmHg 96%
    05:00 +11°C° 0 mm 1 m/S 625 mmHg 96%
    06:00 +11°C° 0 mm 1 m/S 625 mmHg 96%
    07:00 +13°C° 0 mm 1 m/S 626 mmHg 90%
    08:00 +14°C° 0 mm 1 m/S 626 mmHg 85%
    09:00 +16°C° 0 mm 2 m/S 627 mmHg 79%
    10:00 +17°C° 0.1 mm 2 m/S 627 mmHg 73%
    11:00 +18°C° 0.1 mm 2 m/S 627 mmHg 66%
    12:00 +19°C° 0.1 mm 2 m/S 628 mmHg 60%
    13:00 +19°C° 0.1 mm 2 m/S 627 mmHg 57%
    14:00 +20°C° 0.1 mm 2 m/S 627 mmHg 54%
    15:00 +20°C° 0.1 mm 2 m/S 627 mmHg 50%
    16:00 +19°C° 0 mm 2 m/S 627 mmHg 55%
    17:00 +19°C° 0 mm 2 m/S 626 mmHg 60%
    18:00 +19°C° 0 mm 1 m/S 626 mmHg 65%
    19:00 +16°C° 0 mm 1 m/S 625 mmHg 69%
    20:00 +14°C° 0 mm 1 m/S 625 mmHg 74%
    21:00 +12°C° 0 mm 1 m/S 624 mmHg 78%
    22:00 +12°C° 0 mm 1 m/S 624 mmHg 78%
    23:00 +12°C° 0 mm 1 m/S 624 mmHg 78%

    23 Juni, Sonntag

    Zeit Temperatur Niederschläge Wind Luftdruck Luftfeuchtigkeit
    00:00 +12°C° 0 mm 1 m/S 624 mmHg 78%
    01:00 +12°C° 0 mm 1 m/S 624 mmHg 78%
    02:00 +12°C° 0 mm 1 m/S 624 mmHg 78%
    03:00 +12°C° 0 mm 1 m/S 623 mmHg 77%
    04:00 +13°C° 0 mm 1 m/S 624 mmHg 75%
    05:00 +14°C° 0 mm 1 m/S 624 mmHg 72%
    06:00 +15°C° 0 mm 1 m/S 625 mmHg 69%
    07:00 +17°C° 0 mm 2 m/S 626 mmHg 59%
    08:00 +19°C° 0 mm 2 m/S 627 mmHg 49%
    09:00 +23°C° 0 mm 2 m/S 628 mmHg 38%
    10:00 +24°C° 0 mm 2 m/S 628 mmHg 37%
    11:00 +25°C° 0 mm 3 m/S 628 mmHg 35%
    12:00 +26°C° 0 mm 3 m/S 628 mmHg 34%
    13:00 +26°C° 0 mm 3 m/S 628 mmHg 35%
    14:00 +26°C° 0 mm 3 m/S 628 mmHg 35%
    15:00 +26°C° 0 mm 3 m/S 628 mmHg 35%
    16:00 +24°C° 0 mm 2 m/S 627 mmHg 42%
    17:00 +23°C° 0 mm 2 m/S 627 mmHg 49%
    18:00 +21°C° 0 mm 2 m/S 626 mmHg 56%
    19:00 +19°C° 0 mm 2 m/S 626 mmHg 58%
    20:00 +17°C° 0 mm 2 m/S 625 mmHg 59%
    21:00 +16°C° 0 mm 2 m/S 625 mmHg 61%
    22:00 +16°C° 0 mm 2 m/S 625 mmHg 57%
    23:00 +15°C° 0 mm 2 m/S 625 mmHg 53%

    24 Juni, Montag

    Zeit Temperatur Niederschläge Wind Luftdruck Luftfeuchtigkeit
    00:00 +15°C° 0 mm 2 m/S 625 mmHg 49%
    01:00 +15°C° 0 mm 2 m/S 625 mmHg 49%
    02:00 +15°C° 0 mm 2 m/S 625 mmHg 48%
    03:00 +15°C° 0 mm 2 m/S 625 mmHg 48%
    04:00 +16°C° 0 mm 2 m/S 625 mmHg 49%
    05:00 +17°C° 0 mm 2 m/S 625 mmHg 51%
    06:00 +17°C° 0 mm 2 m/S 626 mmHg 52%
    07:00 +20°C° 0 mm 2 m/S 627 mmHg 47%
    08:00 +23°C° 0 mm 2 m/S 628 mmHg 41%
    09:00 +26°C° 0 mm 2 m/S 629 mmHg 36%
    10:00 +27°C° 0 mm 3 m/S 629 mmHg 32%
    11:00 +29°C° 0 mm 3 m/S 630 mmHg 28%
    12:00 +30°C° 0 mm 4 m/S 630 mmHg 24%
    13:00 +30°C° 0 mm 4 m/S 630 mmHg 24%
    14:00 +30°C° 0 mm 5 m/S 630 mmHg 24%
    15:00 +30°C° 0 mm 5 m/S 630 mmHg 23%
    16:00 +28°C° 0 mm 4 m/S 629 mmHg 31%
    17:00 +27°C° 0 mm 3 m/S 629 mmHg 39%
    18:00 +25°C° 0 mm 3 m/S 628 mmHg 47%
    19:00 +23°C° 0 mm 2 m/S 628 mmHg 48%
    20:00 +19°C° 0 mm 2 m/S 627 mmHg 49%
    21:00 +17°C° 0 mm 2 m/S 627 mmHg 49%
    22:00 +17°C° 0 mm 2 m/S 627 mmHg 46%
    23:00 +17°C° 0 mm 2 m/S 627 mmHg 42%
    Mehr zeigen